Weather Service Report


364 
ASUS46 KLOX 232004
RWRCA 

SOUTHERN CALIFORNIA WEATHER ROUNDUP
NATIONAL WEATHER SERVICE OXNARD CALIFORNIA
1200 PM PST THU NOV 23 2017

NOTE: "FAIR" INDICATES FEW OR NO CLOUDS BELOW 12,000 FEET WITH NO 
SIGNIFICANT WEATHER AND/OR OBSTRUCTIONS TO VISIBILITY.

  -  STATIONS PRECEEDED BY AN ASTERISK (*) ARE NOT NWS OR FAA 
     STATIONS AND ARE NOT SUBJECT TO NWS AND FAA QUALITY CONTROL.

CAZ041-042-087-232100-
LA AND ORANGE COUNTY COASTAL AREAS

  
CITY           SKY/WX    TMP DP  RH WIND       PRES   REMARKS
L.A. DOWNTOWN  SUNNY     91  37  15 CALM      29.96F                  
L.A. AIRPORT   PTSUNNY   85  46  25 W13       29.97F                  
LONG BEACH     MOSUNNY   91  41  17 CALM      29.96F                  

CITY           SKY/WX    TMP DP  RH WIND       PRES   REMARKS
FULLERTON      MOSUNNY   93  42  17 VRB3      29.95F                  
*GETTY CENTER    N/A     90  34  13 S3          N/A                   
HAWTHORNE      MOSUNNY   91  40  16 SW3       29.96F                  
*LEO CARRILLO    N/A     81  44  26 SW6         N/A                   
*LOS ALAMITOS  FAIR      91  48  22 SW7       29.95F                  
*REDONDO BEACH   N/A     80  51  36 W2        29.96F                  
SANTA ANA      PTSUNNY   88  44  21 S8        29.96F                  
STA MONICA APT SUNNY     88  47  24 SW7       29.97F                  
TORRANCE       MOSUNNY   84  48  28 NW7       29.97F                  
*UCLA            N/A     91  36  14 CALM      29.95F                  

$$

CAZ547-548-048-232100-
LA COUNTY VALLEYS AND INLAND EMPIRE

  
CITY           SKY/WX    TMP DP  RH WIND       PRES   REMARKS
BURBANK        SUNNY     89  39  17 VRB5      30.00F                  
VAN NUYS       SUNNY     88  33  14 CALM      30.00F                  

CITY           SKY/WX    TMP DP  RH WIND       PRES   REMARKS
CORONA AIRPORT PTCLDY    90  45  21 CALM      29.98F                  
*CHATSWORTH      N/A     89  42  18 N1        29.96F                  
CHINO          PTSUNNY   90  45  21 NW3       30.00F                  
*CLAREMONT       N/A     87  38  17 S3          N/A                   
MARCH AFB      MOSUNNY   89  32  13 CALM      30.02F                  
ONTARIO        PTSUNNY   87  34  15 CALM      30.00F                  
*PASADENA        N/A     91  48  22 CALM        N/A                   
POMONA         SUNNY     84  37  18 CALM      30.04F                  
RIVERSIDE      MOSUNNY   89  38  16 CALM      29.99F                  
SAN BERNARDINO PTSUNNY   91  32  12 CALM      30.01                   
*SAN RAFAEL HI   N/A     89  37  16 S5          N/A                   
*SAUGUS          N/A     86  38  18 W3          N/A                   
*WHITEMAN AP   NOT AVBL                                               
*WHITTIER HILL   N/A     95  38  14 E2          N/A  HX  90           
*WOODLAND HILL   N/A     91  36  14 NW1         N/A                   

$$

CAZ054-055-232100-
LA AND SAN BERNARDINO COUNTY MOUNTAINS

  
CITY           SKY/WX    TMP DP  RH WIND       PRES   REMARKS
*ACTON           N/A     80  35  20 N7          N/A                   
*BIG BEAR AIRP CLEAR     72  28  20 W3        30.33F                  
*BIG PINES       N/A     72  31  22 CALM        N/A                   
*CHILAO          N/A     78  31  18 S7          N/A                   
SANDBERG       SUNNY     80  33  18 NE7       30.24F                  
*WARM SPRINGS    N/A     82  34  18 E8          N/A                   

$$

CAZ028-029-059-060-099-232100-
ANTELOPE VALLEY AND SURROUNDING AREAS

  
CITY           SKY/WX    TMP DP  RH WIND       PRES   REMARKS
LANCASTER      SUNNY     74  31  20 CALM      30.14F                  
PALMDALE       SUNNY     75  34  22 CALM      30.15F                  
*POPPY PARK      N/A     79  33  19 CALM        N/A                   

CITY           SKY/WX    TMP DP  RH WIND       PRES   REMARKS
29 PALMS       SUNNY     80  31  16 CALM      30.15F                  
BARSTOW/DAGGET SUNNY     77  36  22 W3        30.11F                  
BISHOP         SUNNY     68  36  30 CALM      30.21F                  
CHINA LAKE     SUNNY     73  31  21 VRB3      30.12F                  
EDWARDS AFB    SUNNY     71  30  22 CALM      30.12F                  
MOJAVE         SUNNY     73  34  23 SE3       30.16F                  
NEEDLES        SUNNY     82  37  20 N5        30.05F                  
VICTORVILLE    MOSUNNY   73  32  21 CALM      30.16F                  

$$

CAZ039-040-232100-
VENTURA AND SANTA BARBARA COUNTY COAST

  
CITY           SKY/WX    TMP DP  RH WIND       PRES   REMARKS
CAMARILLO      SUNNY     93  46  19 SW7       29.96F                  
NWS OXNARD       N/A     92  40  16 CALM      29.96F                  
OXNARD AIRPORT SUNNY     78  57  48 W9        29.98F                  
*POINT MUGU    SUNNY     82  60  47 SW3       29.98F                  
SBA APT/GOLETA SUNNY     76  50  40 SW6       29.98F                  
*SANTA BARBARA   N/A     84  44  24 CALM      30.05F                  
*VENTURA         N/A     89  47  23 CALM      29.93F                  

$$

CAZ044-045-232100-
VENTURA COUNTY VALLEYS

  
CITY           SKY/WX    TMP DP  RH WIND       PRES   REMARKS
*SIMI VALLEY     N/A     91  41  17 NW2       29.91F                  
*WESTLAKE VILL   N/A     87  46  23 CALM      29.98F                  
*OJAI            N/A     93  47  20 W2        29.93F                  

$$

CAZ053-232100-
VENTURA COUNTY MOUNTAINS

  
CITY           SKY/WX    TMP DP  RH WIND       PRES   REMARKS
*ROSE VALLEY     N/A     82  36  18 SW5G10      N/A                   

$$

CAZ034-035-036-232100-
CENTRAL COAST AND SANTA YNEZ VALLEY

  
CITY           SKY/WX    TMP DP  RH WIND       PRES   REMARKS
SAN LUIS OBISP SUNNY     85  51  31 W8        30.01F                  
SANTA MARIA    SUNNY     78  49  35 NW6       30.03F                  

CITY           SKY/WX    TMP DP  RH WIND       PRES   REMARKS
*LOMPOC        MOSUNNY   76  55  48 W9        30.02F                  
*PISMO BEACH     N/A     64  60  86 SW1       30.02F                  

$$

CAZ037-038-051-232100-
SAN LUIS OBISPO COUNTY INTERIOR AND CUYAMA VALLEY

  
CITY           SKY/WX    TMP DP  RH WIND       PRES   REMARKS
*CUYAMA          N/A     83  38  20 CALM      30.00F                  
PASO ROBLES    SUNNY     77  43  29 NW3       30.07F                  

$$

CAZ032-033-061-232100-
SOUTHERN DESERTS

  
CITY           SKY/WX    TMP DP  RH WIND       PRES   REMARKS
BLYTHE         SUNNY     81  39  22 CALM      30.01F                  
IMPERIAL       SUNNY     87  39  18 CALM      29.97F                  
PALM SPRINGS   SUNNY     90  39  16 VRB5      30.00F                  
THERMAL        SUNNY     87  45  23 VRB3      29.96F                  

$$

ELSEWHERE ACROSS THE WESTERN UNITED STATES AND MEXICO

  
CITY           SKY/WX    TMP DP  RH WIND       PRES   REMARKS
DENVER, CO     PTSUNNY   71  22  15 W13       30.07F                  
GRAND CANYON,  SUNNY     70  23  17 VRB3      30.33F                  
HONOLULU, HI   MOSUNNY   80  59  48 NE16G22   30.12R                  
KAHULUI, MAUI  PTSUNNY   76  67  73 NE17G26   30.11S                  
LAKE TAHOE, CA MOSUNNY   65  31  28 S14G29    30.27F                  
LAS VEGAS, NV  PTSUNNY   75  38  26 CALM      30.12F                  
MAMMOTH LAKES, FAIR      64  31  28 SE10      30.35F                  
MEXICO CITY, M SUNNY     64  27  24 N2        30.26F                  
PHOENIX, AZ    MOSUNNY   83  35  18 NE3       30.01F                  
PORTLAND, OR   LGT RAIN  63  57  81 W12       29.88F                  
RENO, NV       PTSUNNY   63  39  41 CALM      30.20F                  
SALT LAKE CITY PTSUNNY   63  43  48 NW3       30.19F                  
SAN DIEGO, CA  MOSUNNY   85  39  19 NW8       29.97F                  
SAN FRANCISCO, CLOUDY    63  58  83 CALM      30.13F                  
SAN JOSE, CA   PTSUNNY   71  58  63 NW9       30.13F                  
SEATTLE, WA    CLOUDY    53  50  89 SW12      29.82S                  
TIJUANA, MEX   SUNNY     91  32  12 NW5       29.99F                  

$$
  
STATION/POSITION TIME  TEMP    WIND        PRES    VSBY  WAVE
                       AIR SEA DIR/SP/G                  HT/PER
                 (UTC) (F)     (DEG/KT/KT) (MB)    (MI)  (FT/S)
POINT ARGUELLO B NOT AVBL
WEST SANTA BARBA 1950   61 60  310/ 12/ 16 1015.4F         6/15
POINT CONCEPTION NOT AVBL
EAST SANTA BARBA 1940   61 62  250/  8/ 10 1016.7F
SANTA MONICA BAY 1950      65  290/  4/  6 1015.0F         3/14

Return to Home page


Western Regional Climate Center, wrcc@dri.edu